Flag for Germany Weather past 2 weeks in Achern, Baden-Württemberg, Germany

Now
59 °F

Fog.


Feels Like: 60 °F
Forecast: 56 / 80 °F
Wind: 3 mph from Southwest

Location: Karlsruhe - Baden Wurttemberg

Current Time: Jul 31, 2014 at 6:16:39 AM

Latest Report: Jul 31, 2014 at 5:20 AM


Visibility: N/A

Pressure: 29.98 "Hg

Humidity: 94%

Dew point: 57 °F

Location of AchernLocation

Historic Weather in Achern — Graph

°F

Achern temperature yesterday

Maximum temperature yesterday: 72 °F (at 5:20 PM)
Minimum temperature yesterday: 63 °F (at 4:50 AM)
Average temperature yesterday: 66 °F

Past Weeks' High & Low Weather Summary

 TemperatureHumidityPressure
High93 °F (Jul 19, 5:20 PM)94% (Jul 16, 5:20 AM)30.18 "Hg (Jul 16, 5:20 AM)
Low57 °F (Jul 16, 5:50 AM)24% (Jul 18, 4:20 PM)29.77 "Hg (Jul 28, 5:20 PM)
Average72 °F68%29.93 "Hg
* Reported Jul 16 5:20 AM — Jul 31 5:20 AM, Achern, Weather by CustomWeather, © 2014

Note: Actual official high and low records may vary slightly from our data, if they occured in-between our weather recording intervals... More about our weather records

Advertising

Achern weather history for previous 24 hours

 ConditionsComfort  
Time TempWeatherWind HumidityBarometerVisibility
5:20 AM
Jul 31
59 °FFog.3 mph94%29.98 "HgN/A
4:50 AM61 °FFog.3 mph88%29.98 "HgN/A
12:20 AM63 °FClear.2 mph88%29.95 "Hg10 mi
11:50 PM
Jul 30
64 °FClear.1 mph83%29.95 "Hg10 mi
11:20 PM66 °FPassing clouds.3 mph78%29.95 "HgN/A
10:50 PM66 °FPartly cloudy.5 mph78%29.95 "HgN/A
10:20 PM68 °FPartly cloudy.6 mph73%29.95 "HgN/A
9:50 PM68 °FPartly sunny.2 mph83%29.95 "HgN/A
9:20 PM68 °FScattered showers. Partly sunny.No wind83%29.95 "Hg6 mi
8:50 PM68 °FScattered showers. Partly sunny.2 mph83%29.92 "HgN/A
8:20 PM70 °FScattered showers. Broken clouds.2 mph78%29.92 "HgN/A
7:50 PM70 °FScattered showers. Partly sunny.2 mph78%29.89 "HgN/A
7:20 PM70 °FScattered showers. Partly sunny.2 mph73%29.89 "HgN/A
6:50 PM70 °FScattered showers. Partly sunny.5 mph73%29.89 "HgN/A
6:20 PM70 °FPartly sunny.5 mph73%29.89 "HgN/A
5:50 PM70 °FPartly sunny.6 mph78%29.89 "HgN/A
5:20 PM72 °FScattered showers. Broken clouds.7 mph73%29.89 "HgN/A
4:50 PM70 °FScattered showers. Partly sunny.6 mph73%29.89 "HgN/A
4:20 PM70 °FScattered showers. Broken clouds.9 mph78%29.86 "Hg6 mi
3:50 PM68 °FScattered showers. Broken clouds.2 mph88%29.86 "Hg6 mi
3:20 PM68 °FBroken clouds.2 mph88%29.86 "HgN/A
2:50 PM68 °FScattered showers. Scattered clouds.5 mph88%29.86 "Hg4 mi
2:20 PM66 °FRain showers. Partly sunny.6 mph88%29.86 "Hg1 mi
1:55 PM68 °FRain showers. Partly sunny.6 mph88%29.86 "Hg2 mi
1:20 PM68 °FPartly sunny.7 mph88%29.83 "Hg6 mi
12:50 PM66 °FRain. Broken clouds.6 mph88%29.83 "Hg3 mi
12:20 PM66 °FBroken clouds.3 mph88%29.83 "Hg6 mi
11:50 AM66 °FBroken clouds.6 mph88%29.83 "Hg5 mi
11:20 AM64 °FRain. Broken clouds.5 mph94%29.83 "Hg4 mi
10:50 AM64 °FRain. Broken clouds.6 mph88%29.83 "Hg4 mi
10:20 AM64 °FRain. Broken clouds.6 mph88%29.83 "Hg4 mi
9:50 AM63 °FRain. Partly sunny.8 mph94%29.83 "Hg4 mi
9:20 AM63 °FDrizzle. More clouds than sun.7 mph94%29.80 "Hg4 mi
8:50 AM63 °FDrizzle. Low clouds.8 mph94%29.80 "Hg4 mi
8:20 AM63 °FSprinkles. Broken clouds.8 mph94%29.80 "Hg4 mi
7:50 AM63 °FLight rain. Broken clouds.9 mph94%29.80 "Hg4 mi
7:20 AM63 °FScattered showers. Broken clouds.9 mph94%29.80 "Hg4 mi
6:50 AM63 °FLight rain. Partly cloudy.7 mph94%29.80 "Hg4 mi
6:20 AM63 °FLight rain. Fog.7 mph94%29.80 "Hg3 mi
Weather by CustomWeather, © 2014

See weather overviewHow to use our weather pages